START_TIME,STEP,MOV.,M6,t_acc.,M7,t_acc.,M19,t_acc.,H36,t_acc.
1979-07-26 09:00:26.440 ,0,0,0.,12.0,0.,12.0,0.,12.0,0.,12.0
1979-07-26 09:00:38.440 ,0,0,0.,12.0,0.,12.0,0.,12.0,0.,12.0
1979-07-26 09:00:50.440 ,0,1,0.,12.0,0.,12.0,0.,12.0,0.,12.0
1979-07-26 09:01:02.440 ,0,1,0.,12.0,0.,12.0,0.,12.0,0.,12.0
1979-07-26 09:01:14.440 ,0,0,0.,12.0,0.,12.0,0.,12.0,0.,12.0
1979-07-26 09:01:26.440 ,0,0,0.,12.0,0.,12.0,0.,12.0,0.,12.0
1979-07-26 09:01:38.440 ,1,1,0.,12.0,0.,12.0,0.,12.0,0.,12.0
1979-07-26 09:01:50.440 ,1,1,0.,12.0,0.,12.0,0.,12.0,0.,12.0
1979-07-26 09:02:02.440 ,1,0,0.,12.0,0.,12.0,0.,12.0,0.,12.0
1979-07-26 09:02:14.440 ,1,0,0.,12.0,0.,12.0,0.,12.0,0.,12.0
1979-07-26 09:02:26.440 ,2,1,0.,12.0,0.,12.0,0.,12.0,0.,12.0
1979-07-26 09:02:38.440 ,2,1,0.,12.0,0.,12.0,0.,12.0,0.,12.0
1979-07-26 09:02:50.440 ,2,0,0.,12.0,0.,12.0,0.,12.0,0.,12.0
1979-07-26 09:03:02.440 ,2,0,0.,12.0,0.,12.0,0.,12.0,0.,12.0
1979-07-26 09:03:14.440 ,3,1,0.,12.0,0.,12.0,0.,12.0,0.,12.0
1979-07-26 09:03:26.440 ,3,1,0.,12.0,0.,12.0,0.,12.0,0.,12.0
1979-07-26 09:03:38.440 ,3,0,0.,12.0,0.,12.0,0.,12.0,0.,12.0
1979-07-26 09:03:50.440 ,3,0,0.,12.0,0.,12.0,0.,12.0,0.,12.0
1979-07-26 09:04:02.440 ,4,1,0.,12.0,0.,12.0,0.,12.0,0.,12.0
1979-07-26 09:04:14.440 ,4,1,0.,12.0,0.,12.0,0.,12.0,0.,12.0
1979-07-26 09:04:26.440 ,4,0,0.,12.0,0.,12.0,0.,12.0,0.,12.0
1979-07-26 09:04:38.440 ,4,0,0.,12.0,0.,12.0,0.,12.0,0.,12.0
1979-07-26 09:04:50.440 ,5,1,0.,12.0,0.,12.0,0.,12.0,0.,12.0
1979-07-26 09:05:02.440 ,5,1,0.,12.0,0.,12.0,0.,12.0,0.,12.0
1979-07-26 09:05:14.440 ,5,0,0.,12.0,0.,12.0,0.,12.0,0.,12.0
1979-07-26 09:05:26.440 ,5,0,0.,12.0,0.,12.0,0.,12.0,0.,12.0
1979-07-26 09:05:38.440 ,6,1,0.,12.0,0.,12.0,0.,12.0,0.,12.0
1979-07-26 09:05:50.440 ,6,1,0.,12.0,0.,12.0,0.,12.0,0.,12.0
1979-07-26 09:06:02.440 ,6,0,0.,12.0,0.,12.0,0.,12.0,0.,12.0
1979-07-26 09:06:14.440 ,6,0,0.,12.0,0.,12.0,0.,12.0,0.,12.0
1979-07-26 09:06:26.440 ,7,0,0.,12.0,0.,12.0,0.,12.0,0.,12.0
1979-07-26 09:06:38.440 ,7,0,0.,12.0,0.,12.0,0.,12.0,0.,12.0
1979-07-26 09:06:50.440 ,7,0,0.,12.0,0.,12.0,0.,12.0,0.,12.0
1979-07-26 09:07:02.440 ,7,0,0.,12.0,0.,12.0,0.,12.0,0.,12.0
1979-07-26 09:07:14.440 ,4,1,0.,12.0,0.,12.0,0.,12.0,0.,12.0
1979-07-26 09:07:26.440 ,4,1,0.,12.0,0.,12.0,0.,12.0,0.,12.0
1979-07-26 09:07:38.440 ,0,1,0.,12.0,0.,12.0,0.,12.0,0.,12.0
1979-07-26 09:07:50.440 ,0,1,0.,12.0,0.,12.0,0.,12.0,0.,12.0
1979-07-26 09:08:02.440 ,0,0,0.,12.0,0.,12.0,0.,12.0,0.,12.0
1979-07-26 09:08:14.440 ,0,0,,0,,0,,0,,0
1979-07-26 09:08:26.440 ,0,0,,0,,0,,0,,0
1979-07-26 09:08:38.440 ,0,0,0.,12.0,0.,12.0,0.,12.0,0.,12.0
1979-07-26 09:08:50.440 ,4,1,0.,12.0,0.,12.0,0.,12.0,0.,12.0
1979-07-26 09:09:02.440 ,4,1,0.,12.0,0.,12.0,0.,12.0,0.,12.0
1979-07-26 09:09:14.440 ,0,1,0.,12.0,0.,12.0,0.,12.0,0.,12.0
1979-07-26 09:09:26.440 ,0,1,0.,12.0,0.,12.0,0.,12.0,0.,12.0
1979-07-26 09:09:38.440 ,3,1,0.,12.0,0.,12.0,0.,12.0,0.,12.0
1979-07-26 09:09:50.440 ,3,1,0.,12.0,0.,12.0,0.,12.0,0.,12.0
1979-07-26 09:10:02.440 ,7,1,0.,12.0,0.,12.0,0.,12.0,0.,12.0
1979-07-26 09:10:14.440 ,7,1,0.,12.0,0.,12.0,0.,12.0,0.,12.0
1979-07-26 09:10:26.440 ,4,1,0.,12.0,0.,12.0,0.,12.0,0.,12.0
1979-07-26 09:10:38.440 ,4,1,0.,12.0,0.,12.0,0.,12.0,0.,12.0
1979-07-26 09:10:50.440 ,0,1,0.,12.0,0.,12.0,0.,12.0,0.,12.0
1979-07-26 09:11:02.440 ,0,1,0.,12.0,0.,12.0,0.,12.0,0.,12.0
1979-07-26 09:11:14.440 ,0,0,0.,12.0,0.,12.0,0.,12.0,0.,12.0
1979-07-26 09:11:26.440 ,0,0,0.,12.0,0.,12.0,0.,12.0,0.,12.0
1979-07-26 09:11:38.440 ,7,1,0.,12.0,0.,12.0,0.,12.0,0.,12.0
1979-07-26 09:11:50.440 ,7,1,0.,12.0,0.,12.0,0.,12.0,0.,12.0
1979-07-26 09:12:02.440 ,4,1,0.,12.0,0.,12.0,0.,12.0,0.,12.0
1979-07-26 09:12:14.440 ,4,1,0.,12.0,0.,12.0,0.,12.0,0.,12.0
1979-07-26 09:12:26.440 ,0,1,0.,12.0,0.,12.0,0.,12.0,0.,12.0
1979-07-26 09:12:38.440 ,0,1,0.,12.0,0.,12.0,0.,12.0,0.,12.0
1979-07-26 09:12:50.440 ,3,1,0.,12.0,0.,12.0,0.,12.0,0.,12.0
1979-07-26 09:13:02.440 ,3,1,0.,12.0,0.,12.0,0.,12.0,0.,12.0
1979-07-26 09:13:14.440 ,7,1,0.,12.0,0.,12.0,0.,12.0,0.,12.0
1979-07-26 09:13:26.440 ,7,1,0.,12.0,0.,12.0,0.,12.0,0.,12.0
1979-07-26 09:13:38.440 ,4,1,0.,12.0,0.,12.0,0.,12.0,0.,12.0
1979-07-26 09:13:50.440 ,4,1,0.,12.0,0.,12.0,0.,12.0,0.,12.0
1979-07-26 09:14:02.440 ,0,1,0.,12.0,0.,12.0,0.,12.0,0.,12.0
1979-07-26 09:14:14.440 ,0,1,0.,12.0,0.,12.0,0.,12.0,0.,12.0
1979-07-26 09:14:26.440 ,3,1,0.,12.0,0.,12.0,0.,12.0,0.,12.0
1979-07-26 09:14:38.440 ,3,1,0.,12.0,0.,12.0,0.,12.0,0.,12.0
1979-07-26 09:14:50.440 ,7,1,0.,12.0,0.,12.0,0.,12.0,0.,12.0
1979-07-26 09:15:02.440 ,7,1,0.,12.0,0.,12.0,0.,12.0,0.,12.0
1979-07-26 09:15:14.440 ,4,1,0.,12.0,0.,12.0,0.,12.0,0.,12.0
1979-07-26 09:15:26.440 ,4,1,0.,12.0,0.,12.0,0.,12.0,0.,12.0
1979-07-26 09:15:38.440 ,0,1,0.,12.0,0.,12.0,0.,12.0,0.,12.0
1979-07-26 09:15:50.440 ,0,1,0.,12.0,0.,12.0,0.,12.0,0.,12.0
1979-07-26 09:16:26.440 ,7,1,0.,12.0,0.,12.0,0.,12.0,0.,12.0
1979-07-26 09:16:38.440 ,7,1,0.,12.0,0.,12.0,0.,12.0,0.,12.0
1979-07-26 09:16:50.440 ,4,1,0.,12.0,0.,12.0,0.,12.0,0.,12.0
1979-07-26 09:17:02.440 ,4,1,0.,12.0,0.,12.0,0.,12.0,0.,12.0
1979-07-26 09:17:14.440 ,0,1,0.,12.0,0.,12.0,0.,12.0,0.,12.0
1979-07-26 09:17:26.440 ,0,1,0.,12.0,0.,12.0,0.,12.0,0.,12.0
1979-07-26 09:17:38.440 ,0,0,0.,12.0,0.,12.0,0.,12.0,0.,12.0
1979-07-26 09:17:50.440 ,0,0,0.,12.0,0.,12.0,0.,12.0,0.,12.0
1979-07-26 09:18:02.440 ,0,0,0.,12.0,0.,12.0,0.,12.0,0.,12.0
1979-07-26 09:18:14.440 ,0,0,0.,12.0,0.,12.0,0.,12.0,0.,12.0
1979-07-26 09:18:26.440 ,5,1,0.,12.0,0.,12.0,0.,12.0,0.,12.0
1979-07-26 09:18:38.440 ,5,1,0.,12.0,0.,12.0,0.,12.0,0.,12.0
1979-07-26 09:18:50.440 ,5,0,0.,12.0,0.,12.0,0.,12.0,0.,12.0
1979-07-26 09:19:02.440 ,5,0,0.,12.0,0.,12.0,0.,12.0,0.,12.0
1979-07-26 09:19:14.440 ,4,1,0.,12.0,0.,12.0,0.,12.0,0.,12.0
1979-07-26 09:19:26.440 ,4,1,0.,12.0,0.,12.0,0.,12.0,0.,12.0
1979-07-26 09:19:38.440 ,4,0,0.,12.0,0.,12.0,0.,12.0,0.,12.0
1979-07-26 09:19:50.440 ,4,0,0.,12.0,0.,12.0,0.,12.0,0.,12.0
1979-07-26 09:20:02.440 ,3,1,0.,12.0,0.,12.0,0.,12.0,0.,12.0
1979-07-26 09:20:14.440 ,3,1,0.,12.0,0.,12.0,0.,12.0,0.,12.0
1979-07-26 09:20:26.440 ,3,0,0.,12.0,0.,12.0,0.,12.0,0.,12.0
1979-07-26 09:20:38.440 ,3,0,0.,12.0,0.,12.0,0.,12.0,0.,12.0
1979-07-26 09:20:50.440 ,2,1,0.,12.0,0.,12.0,0.,12.0,0.,12.0
1979-07-26 09:21:02.440 ,2,1,0.,12.0,0.,12.0,0.,12.0,0.,12.0
1979-07-26 09:21:14.440 ,2,0,0.,12.0,0.,12.0,0.,12.0,0.,12.0
1979-07-26 09:21:26.440 ,2,0,0.,12.0,0.,12.0,0.,12.0,0.,12.0
1979-07-26 09:21:38.440 ,1,1,0.,12.0,0.,12.0,0.,12.0,0.,12.0
1979-07-26 09:21:50.440 ,1,1,0.,12.0,0.,12.0,0.,12.0,0.,12.0
1979-07-26 09:22:02.440 ,1,0,0.,12.0,0.,12.0,0.,12.0,0.,12.0
1979-07-26 09:22:14.440 ,1,0,0.,12.0,0.,12.0,0.,12.0,0.,12.0
1979-07-26 09:22:26.440 ,0,1,0.,12.0,0.,12.0,0.,12.0,0.,12.0
1979-07-26 09:22:38.440 ,0,1,0.,12.0,0.,12.0,0.,12.0,0.,12.0
1979-07-26 09:22:50.440 ,0,0,0.,12.0,0.,12.0,0.,12.0,0.,12.0
1979-07-26 09:23:02.440 ,0,0,0.,12.0,0.,12.0,0.,12.0,0.,12.0
1979-07-26 09:23:14.440 ,0,1,0.,12.0,0.,12.0,0.,12.0,0.,12.0
1979-07-26 09:23:26.440 ,0,1,0.,12.0,0.,12.0,0.,12.0,0.,12.0
1979-07-26 09:23:38.440 ,0,0,0.,12.0,0.,12.0,0.,12.0,0.,12.0
1979-07-26 09:23:50.440 ,0,0,0.,12.0,0.,12.0,0.,12.0,0.,12.0
1979-07-26 09:24:02.440 ,1,1,0.,12.0,0.,12.0,0.,12.0,0.,12.0
1979-07-26 09:24:14.440 ,1,1,0.,12.0,0.,12.0,0.,12.0,0.,12.0
1979-07-26 09:24:26.440 ,1,0,0.,12.0,0.,12.0,0.,12.0,0.,12.0
1979-07-26 09:24:38.440 ,1,0,0.,12.0,0.,12.0,0.,12.0,0.,12.0
1979-07-26 09:24:50.440 ,2,1,0.,12.0,0.,12.0,0.,12.0,0.,12.0
1979-07-26 09:25:02.440 ,2,1,0.,12.0,0.,12.0,0.,12.0,0.,12.0
1979-07-26 09:25:14.440 ,2,0,0.,12.0,0.,12.0,0.,12.0,0.,12.0
1979-07-26 09:25:26.440 ,2,0,0.,12.0,0.,12.0,0.,12.0,0.,12.0
1979-07-26 09:25:38.440 ,3,1,0.,12.0,0.,12.0,0.,12.0,0.,12.0
1979-07-26 09:25:50.440 ,3,1,0.,12.0,0.,12.0,0.,12.0,0.,12.0
1979-07-26 09:26:02.440 ,3,0,0.,12.0,0.,12.0,0.,12.0,0.,12.0
1979-07-26 09:26:14.440 ,3,0,0.,12.0,0.,12.0,0.,12.0,0.,12.0
1979-07-26 09:26:26.440 ,4,1,0.,12.0,0.,12.0,0.,12.0,0.,12.0
1979-07-26 09:26:38.440 ,4,1,0.,12.0,0.,12.0,0.,12.0,0.,12.0
1979-07-26 09:26:50.440 ,4,0,0.,12.0,0.,12.0,0.,12.0,0.,12.0
1979-07-26 09:27:02.440 ,4,0,0.,12.0,0.,12.0,0.,12.0,0.,12.0
1979-07-26 09:27:14.440 ,5,1,0.,12.0,0.,12.0,0.,12.0,0.,12.0
1979-07-26 09:27:26.440 ,5,1,0.,12.0,0.,12.0,0.,12.0,0.,12.0
1979-07-26 09:27:38.440 ,5,0,0.,12.0,0.,12.0,0.,12.0,0.,12.0
1979-07-26 09:27:50.440 ,5,0,0.,12.0,0.,12.0,0.,12.0,0.,12.0
1979-07-26 09:28:02.440 ,6,1,0.,12.0,0.,12.0,0.,12.0,0.,12.0
1979-07-26 09:28:14.440 ,6,1,0.,12.0,0.,12.0,0.,12.0,0.,12.0
1979-07-26 09:28:26.440 ,6,0,0.,12.0,0.,12.0,0.,12.0,0.,12.0
1979-07-26 09:28:38.440 ,6,0,1.,12.0,0.,12.0,0.,12.0,0.,12.0
1979-07-26 09:28:50.440 ,7,1,1.,12.0,0.,12.0,0.,12.0,0.,12.0
1979-07-26 09:29:02.440 ,7,1,0.,12.0,0.,12.0,0.,12.0,0.,12.0
1979-07-26 09:29:14.440 ,7,0,0.,12.0,0.,12.0,0.,12.0,0.,12.0
1979-07-26 09:29:26.440 ,7,0,0.,12.0,0.,12.0,0.,12.0,0.,12.0
1979-07-26 09:29:38.440 ,7,1,0.,12.0,0.,12.0,0.,12.0,0.,12.0
1979-07-26 09:29:50.440 ,7,1,0.,12.0,0.,12.0,0.,12.0,0.,12.0
1979-07-26 09:30:02.440 ,7,0,0.,12.0,0.,12.0,0.,12.0,0.,12.0
1979-07-26 09:30:14.440 ,7,0,0.,12.0,0.,12.0,0.,12.0,0.,12.0
1979-07-26 09:30:26.440 ,6,1,0.,12.0,0.,12.0,0.,12.0,0.,12.0
1979-07-26 09:30:38.440 ,6,1,0.,12.0,0.,12.0,0.,12.0,0.,12.0
1979-07-26 09:30:50.440 ,6,0,0.,12.0,0.,12.0,0.,12.0,0.,12.0
1979-07-26 09:31:02.440 ,6,0,0.,12.0,0.,12.0,0.,12.0,0.,12.0
1979-07-26 09:31:14.440 ,5,1,0.,12.0,0.,12.0,0.,12.0,0.,12.0
1979-07-26 09:31:26.440 ,5,1,0.,12.0,0.,12.0,0.,12.0,0.,12.0
1979-07-26 09:31:38.440 ,5,0,0.,12.0,0.,12.0,0.,12.0,0.,12.0
1979-07-26 09:31:50.440 ,5,0,0.,12.0,0.,12.0,0.,12.0,0.,12.0
1979-07-26 09:32:02.440 ,4,1,0.,12.0,0.,12.0,0.,12.0,0.,12.0
1979-07-26 09:32:14.440 ,4,1,0.,12.0,0.,12.0,0.,12.0,0.,12.0
1979-07-26 09:32:26.440 ,4,0,0.,12.0,0.,12.0,0.,12.0,0.,12.0
1979-07-26 09:32:38.440 ,4,0,0.,12.0,0.,12.0,0.,12.0,0.,12.0
1979-07-26 09:32:50.440 ,3,1,0.,12.0,0.,12.0,0.,12.0,0.,12.0
1979-07-26 09:33:02.440 ,3,1,0.,12.0,0.,12.0,0.,12.0,0.,12.0
1979-07-26 09:33:14.440 ,3,0,0.,12.0,0.,12.0,0.,12.0,0.,12.0
1979-07-26 09:33:26.440 ,3,0,0.,12.0,0.,12.0,0.,12.0,0.,12.0
1979-07-26 09:33:38.440 ,2,1,0.,12.0,0.,12.0,0.,12.0,0.,12.0
1979-07-26 09:33:50.440 ,2,1,0.,12.0,0.,12.0,0.,12.0,0.,12.0
1979-07-26 09:34:02.440 ,2,0,0.,12.0,0.,12.0,0.,12.0,0.,12.0
1979-07-26 09:34:14.440 ,2,0,0.,12.0,0.,12.0,0.,12.0,0.,12.0
1979-07-26 09:34:26.440 ,1,1,0.,12.0,0.,12.0,0.,12.0,0.,12.0
1979-07-26 09:34:38.440 ,1,1,0.,12.0,0.,12.0,0.,12.0,0.,12.0
1979-07-26 09:34:50.440 ,1,0,0.,12.0,0.,12.0,0.,12.0,0.,12.0
1979-07-26 09:35:02.440 ,1,0,0.,12.0,0.,12.0,0.,12.0,0.,12.0
1979-07-26 09:35:14.440 ,0,1,0.,12.0,0.,12.0,0.,12.0,0.,12.0
1979-07-26 09:35:26.440 ,0,1,0.,12.0,0.,12.0,0.,12.0,0.,12.0
1979-07-26 09:35:38.440 ,0,0,0.,12.0,0.,12.0,0.,12.0,0.,12.0
1979-07-26 09:35:50.440 ,0,0,0.,12.0,0.,12.0,0.,12.0,0.,12.0
1979-07-26 09:36:02.440 ,0,1,0.,12.0,0.,12.0,0.,12.0,0.,12.0
1979-07-26 09:36:14.440 ,0,1,0.,12.0,0.,12.0,0.,12.0,0.,12.0
1979-07-26 09:36:26.440 ,0,0,0.,12.0,0.,12.0,0.,12.0,0.,12.0
1979-07-26 09:36:38.440 ,0,0,0.,12.0,0.,12.0,0.,12.0,0.,12.0
1979-07-26 09:36:50.440 ,1,1,0.,12.0,0.,12.0,0.,12.0,0.,12.0
1979-07-26 09:37:02.440 ,1,1,0.,12.0,0.,12.0,0.,12.0,0.,12.0
1979-07-26 09:37:14.440 ,1,0,0.,12.0,0.,12.0,0.,12.0,0.,12.0
1979-07-26 09:37:26.440 ,1,0,0.,12.0,0.,12.0,0.,12.0,0.,12.0
1979-07-26 09:37:38.440 ,2,1,0.,12.0,0.,12.0,0.,12.0,0.,12.0
1979-07-26 09:37:50.440 ,2,1,0.,12.0,0.,12.0,0.,12.0,0.,12.0
1979-07-26 09:38:02.440 ,2,0,0.,12.0,0.,12.0,0.,12.0,0.,12.0
1979-07-26 09:38:14.440 ,2,0,0.,12.0,0.,12.0,0.,12.0,0.,12.0
1979-07-26 09:38:26.440 ,3,1,0.,12.0,0.,12.0,0.,12.0,0.,12.0
1979-07-26 09:38:38.440 ,3,1,0.,12.0,0.,12.0,0.,12.0,0.,12.0
1979-07-26 09:38:50.440 ,3,0,0.,12.0,0.,12.0,0.,12.0,0.,12.0
1979-07-26 09:39:02.440 ,3,0,0.,12.0,0.,12.0,0.,12.0,0.,12.0
1979-07-26 09:39:14.440 ,4,1,0.,12.0,0.,12.0,0.,12.0,0.,12.0
1979-07-26 09:39:26.440 ,4,1,0.,12.0,0.,12.0,0.,12.0,0.,12.0
1979-07-26 09:39:38.440 ,4,0,0.,12.0,0.,12.0,0.,12.0,0.,12.0
1979-07-26 09:39:50.440 ,4,0,0.,12.0,0.,12.0,0.,12.0,0.,12.0
1979-07-26 09:40:02.440 ,5,1,0.,12.0,0.,12.0,0.,12.0,0.,12.0
1979-07-26 09:40:14.440 ,5,1,0.,12.0,0.,12.0,0.,12.0,0.,12.0
1979-07-26 09:40:26.440 ,5,0,0.,12.0,0.,12.0,0.,12.0,0.,12.0
1979-07-26 09:40:38.440 ,5,0,0.,12.0,0.,12.0,0.,12.0,0.,12.0
1979-07-26 09:40:50.440 ,6,1,0.,12.0,0.,12.0,0.,12.0,0.,12.0
1979-07-26 09:41:02.440 ,6,1,0.,12.0,0.,12.0,0.,12.0,0.,12.0
1979-07-26 09:41:14.440 ,6,0,0.,12.0,0.,12.0,0.,12.0,0.,12.0
1979-07-26 09:41:26.440 ,6,0,0.,12.0,0.,12.0,0.,12.0,0.,12.0
1979-07-26 09:41:38.440 ,0,0,0.,12.0,0.,12.0,0.,12.0,0.,12.0
1979-07-26 09:41:50.440 ,0,0,0.,12.0,0.,12.0,0.,12.0,0.,12.0
1979-07-26 09:42:02.440 ,0,0,0.,12.0,0.,12.0,0.,12.0,0.,12.0
1979-07-26 09:42:14.440 ,0,0,0.,12.0,0.,12.0,0.,12.0,0.,12.0
1979-07-26 09:42:26.440 ,7,1,0.,12.0,0.,12.0,0.,12.0,0.,12.0
1979-07-26 09:42:38.440 ,7,1,0.,12.0,0.,12.0,0.,12.0,0.,12.0
1979-07-26 09:42:50.440 ,7,0,0.,12.0,0.,12.0,0.,12.0,0.,12.0
1979-07-26 09:43:02.440 ,7,0,0.,12.0,0.,12.0,0.,12.0,0.,12.0
1979-07-26 09:43:14.440 ,6,1,0.,12.0,0.,12.0,0.,12.0,0.,12.0
1979-07-26 09:43:26.440 ,6,1,0.,12.0,0.,12.0,0.,12.0,0.,12.0
1979-07-26 09:43:38.440 ,6,0,0.,12.0,0.,12.0,0.,12.0,0.,12.0
1979-07-26 09:43:50.440 ,6,0,0.,12.0,0.,12.0,0.,12.0,0.,12.0
1979-07-26 09:44:02.440 ,5,1,0.,12.0,0.,12.0,0.,12.0,0.,12.0
1979-07-26 09:44:14.440 ,5,1,0.,12.0,0.,12.0,0.,12.0,0.,12.0
1979-07-26 09:44:26.440 ,5,0,0.,12.0,0.,12.0,0.,12.0,0.,12.0
1979-07-26 09:44:38.440 ,5,0,0.,12.0,0.,12.0,0.,12.0,0.,12.0
1979-07-26 09:44:50.440 ,4,1,0.,12.0,0.,12.0,0.,12.0,0.,12.0
1979-07-26 09:45:02.440 ,4,1,0.,12.0,0.,12.0,0.,12.0,0.,12.0
1979-07-26 09:45:14.440 ,4,0,0.,12.0,0.,12.0,0.,12.0,0.,12.0
1979-07-26 09:45:26.440 ,4,0,0.,12.0,0.,12.0,0.,12.0,0.,12.0
1979-07-26 09:45:38.440 ,3,1,0.,12.0,0.,12.0,0.,12.0,0.,12.0
1979-07-26 09:45:50.440 ,3,1,0.,12.0,0.,12.0,0.,12.0,0.,12.0
1979-07-26 09:46:02.440 ,3,0,0.,12.0,0.,12.0,0.,12.0,0.,12.0
1979-07-26 09:46:14.440 ,3,0,0.,12.0,0.,12.0,0.,12.0,0.,12.0
1979-07-26 09:46:26.440 ,2,1,0.,12.0,0.,12.0,0.,12.0,0.,12.0
1979-07-26 09:46:38.440 ,2,1,0.,12.0,0.,12.0,0.,12.0,0.,12.0
1979-07-26 09:46:50.440 ,2,0,0.,12.0,0.,12.0,0.,12.0,0.,12.0
1979-07-26 09:47:02.440 ,2,0,0.,12.0,0.,12.0,0.,12.0,0.,12.0
1979-07-26 09:47:14.440 ,1,1,0.,12.0,0.,12.0,0.,12.0,0.,12.0
1979-07-26 09:47:26.440 ,1,1,0.,12.0,0.,12.0,0.,12.0,0.,12.0
1979-07-26 09:47:38.440 ,1,0,0.,12.0,0.,12.0,0.,12.0,0.,12.0
1979-07-26 09:47:50.440 ,1,0,0.,12.0,0.,12.0,0.,12.0,0.,12.0
1979-07-26 09:48:02.440 ,0,1,0.,12.0,0.,12.0,0.,12.0,0.,12.0
1979-07-26 09:48:14.440 ,0,1,0.,12.0,0.,12.0,0.,12.0,0.,12.0
1979-07-26 09:48:26.440 ,0,0,0.,12.0,0.,12.0,0.,12.0,0.,12.0
1979-07-26 09:48:38.440 ,0,0,0.,12.0,0.,12.0,0.,12.0,0.,12.0
1979-07-26 09:48:50.440 ,0,1,0.,12.0,0.,12.0,0.,12.0,0.,12.0
1979-07-26 09:49:02.440 ,0,1,0.,12.0,0.,12.0,0.,12.0,0.,12.0
1979-07-26 09:49:14.440 ,0,0,0.,12.0,0.,12.0,0.,12.0,0.,12.0
1979-07-26 09:49:26.440 ,0,0,0.,12.0,0.,12.0,0.,12.0,0.,12.0
1979-07-26 09:49:38.440 ,1,1,0.,12.0,0.,12.0,0.,12.0,0.,12.0
1979-07-26 09:49:50.440 ,1,1,0.,12.0,0.,12.0,0.,12.0,0.,12.0
1979-07-26 09:50:02.440 ,1,0,0.,12.0,0.,12.0,0.,12.0,0.,12.0
1979-07-26 09:50:14.440 ,1,0,0.,12.0,0.,12.0,0.,12.0,0.,12.0
1979-07-26 09:50:26.440 ,2,1,0.,12.0,0.,12.0,0.,12.0,0.,12.0
1979-07-26 09:50:38.440 ,2,1,0.,12.0,0.,12.0,0.,12.0,0.,12.0
1979-07-26 09:50:50.440 ,2,0,0.,12.0,0.,12.0,0.,12.0,0.,12.0
1979-07-26 09:51:02.440 ,2,0,0.,12.0,0.,12.0,0.,12.0,0.,12.0
1979-07-26 09:51:14.440 ,3,1,0.,12.0,0.,12.0,0.,12.0,0.,12.0
1979-07-26 09:51:26.440 ,3,1,0.,12.0,0.,12.0,0.,12.0,0.,12.0
1979-07-26 09:51:38.440 ,3,0,0.,12.0,0.,12.0,0.,12.0,0.,12.0
1979-07-26 09:51:50.440 ,3,0,0.,12.0,0.,12.0,0.,12.0,0.,12.0
1979-07-26 09:52:02.440 ,4,1,0.,12.0,0.,12.0,0.,12.0,0.,12.0
1979-07-26 09:52:14.440 ,4,1,0.,12.0,0.,12.0,0.,12.0,0.,12.0
1979-07-26 09:52:26.440 ,4,0,0.,12.0,0.,12.0,0.,12.0,0.,12.0
1979-07-26 09:52:38.440 ,4,0,0.,12.0,0.,12.0,0.,12.0,0.,12.0
1979-07-26 09:52:50.440 ,5,1,0.,12.0,0.,12.0,0.,12.0,0.,12.0
1979-07-26 09:53:02.440 ,5,1,0.,12.0,0.,12.0,0.,12.0,0.,12.0
1979-07-26 09:53:14.440 ,5,0,0.,12.0,0.,12.0,0.,12.0,0.,12.0
1979-07-26 09:53:26.440 ,5,0,0.,12.0,0.,12.0,0.,12.0,0.,12.0
1979-07-26 09:53:38.440 ,6,1,0.,12.0,0.,12.0,0.,12.0,0.,12.0
1979-07-26 09:53:50.440 ,6,1,0.,12.0,0.,12.0,0.,12.0,0.,12.0
1979-07-26 09:54:02.440 ,6,0,0.,12.0,0.,12.0,0.,12.0,0.,12.0
1979-07-26 09:54:14.440 ,6,0,0.,12.0,0.,12.0,0.,12.0,0.,12.0
1979-07-26 09:54:26.440 ,7,0,0.,12.0,0.,12.0,0.,12.0,0.,12.0
1979-07-26 09:54:38.440 ,7,0,0.,12.0,0.,12.0,0.,12.0,0.,12.0
1979-07-26 09:54:50.440 ,7,0,0.,12.0,0.,12.0,0.,12.0,0.,12.0
1979-07-26 09:55:02.440 ,7,0,0.,12.0,0.,12.0,0.,12.0,0.,12.0
1979-07-26 09:55:14.440 ,4,1,0.,12.0,0.,12.0,0.,12.0,0.,12.0
1979-07-26 09:55:26.440 ,4,1,0.,12.0,0.,12.0,0.,12.0,0.,12.0
1979-07-26 09:55:38.440 ,0,1,0.,12.0,0.,12.0,0.,12.0,0.,12.0
1979-07-26 09:55:50.440 ,0,1,0.,12.0,0.,12.0,0.,12.0,0.,12.0
1979-07-26 09:56:02.440 ,3,1,0.,12.0,0.,12.0,0.,12.0,0.,12.0
1979-07-26 09:56:14.440 ,3,1,0.,12.0,0.,12.0,0.,12.0,0.,12.0
1979-07-26 09:56:26.440 ,7,1,0.,12.0,0.,12.0,0.,12.0,0.,12.0
1979-07-26 09:56:38.440 ,7,1,0.,12.0,0.,12.0,0.,12.0,0.,12.0
1979-07-26 09:56:50.440 ,4,1,0.,12.0,0.,12.0,0.,12.0,0.,12.0
1979-07-26 09:57:02.440 ,4,1,0.,12.0,0.,12.0,0.,12.0,0.,12.0
1979-07-26 09:57:14.440 ,0,1,0.,12.0,0.,12.0,0.,12.0,0.,12.0
1979-07-26 09:57:26.440 ,0,1,0.,12.0,0.,12.0,0.,12.0,0.,12.0
1979-07-26 09:57:38.440 ,3,1,0.,12.0,0.,12.0,0.,12.0,0.,12.0
1979-07-26 09:57:50.440 ,3,1,0.,12.0,0.,12.0,0.,12.0,0.,12.0
1979-07-26 09:58:02.440 ,7,1,0.,12.0,0.,12.0,0.,12.0,0.,12.0
1979-07-26 09:58:14.440 ,7,1,0.,12.0,0.,12.0,0.,12.0,0.,12.0
1979-07-26 09:58:26.440 ,4,1,0.,12.0,0.,12.0,0.,12.0,0.,12.0
1979-07-26 09:58:38.440 ,4,1,0.,12.0,0.,12.0,0.,12.0,0.,12.0
1979-07-26 09:58:50.440 ,0,1,0.,12.0,0.,12.0,0.,12.0,0.,12.0
1979-07-26 09:59:02.440 ,0,1,0.,12.0,0.,12.0,0.,12.0,0.,12.0
1979-07-26 09:59:14.440 ,3,1,0.,12.0,0.,12.0,0.,12.0,0.,12.0
1979-07-26 09:59:26.440 ,3,1,0.,12.0,0.,12.0,0.,12.0,0.,12.0
1979-07-26 09:59:38.440 ,7,1,0.,12.0,0.,12.0,0.,12.0,0.,12.0
1979-07-26 09:59:50.440 ,7,1,0.,12.0,0.,12.0,0.,12.0,0.,12.0
1979-07-26 10:00:02.440 ,4,1,0.,12.0,0.,12.0,0.,12.0,0.,12.0
1979-07-26 10:00:14.440 ,4,1,0.,12.0,0.,12.0,0.,12.0,0.,12.0
1979-07-26 10:00:26.440 ,0,1,0.,12.0,0.,12.0,0.,12.0,0.,12.0
1979-07-26 10:00:38.440 ,0,1,0.,12.0,0.,12.0,0.,12.0,0.,12.0
1979-07-26 10:00:50.440 ,3,1,0.,12.0,0.,12.0,0.,12.0,0.,12.0
1979-07-26 10:01:02.440 ,3,1,0.,12.0,0.,12.0,0.,12.0,0.,12.0
1979-07-26 10:01:14.440 ,7,1,0.,12.0,0.,12.0,0.,12.0,0.,12.0
1979-07-26 10:01:26.440 ,7,1,0.,12.0,0.,12.0,0.,12.0,0.,12.0
1979-07-26 10:01:38.440 ,4,1,0.,12.0,0.,12.0,0.,12.0,0.,12.0
1979-07-26 10:01:50.440 ,4,1,0.,12.0,0.,12.0,0.,12.0,0.,12.0
1979-07-26 10:02:02.440 ,0,1,0.,12.0,0.,12.0,0.,12.0,0.,12.0
1979-07-26 10:02:14.440 ,0,1,0.,12.0,0.,12.0,0.,12.0,0.,12.0
1979-07-26 10:02:26.440 ,3,1,0.,12.0,0.,12.0,0.,12.0,0.,12.0
1979-07-26 10:02:38.440 ,3,1,0.,12.0,0.,12.0,0.,12.0,0.,12.0
1979-07-26 10:02:50.440 ,0,0,0.,12.0,0.,12.0,0.,12.0,0.,12.0
1979-07-26 10:03:02.440 ,0,0,0.,12.0,0.,12.0,0.,12.0,0.,12.0
1979-07-26 10:03:49.840 ,0,0,,0,,0,,0,,0
1979-07-26 10:04:01.840 ,0,0,0.,12.0,0.,12.0,0.,12.0,0.,12.0
1979-07-26 10:04:02.440 ,3,1,0.,12.0,0.,12.0,0.,12.0,0.,12.0
1979-07-26 10:04:14.440 ,3,1,0.,12.0,0.,12.0,0.,12.0,0.,12.0
1979-07-26 10:04:26.440 ,7,1,0.,12.0,0.,12.0,0.,12.0,0.,12.0
1979-07-26 10:04:38.440 ,7,1,0.,12.0,0.,12.0,0.,12.0,0.,12.0
1979-07-26 10:04:50.440 ,4,1,0.,12.0,0.,12.0,0.,12.0,0.,12.0
1979-07-26 10:05:02.440 ,4,1,0.,12.0,0.,12.0,0.,12.0,0.,12.0
1979-07-26 10:05:14.440 ,0,1,0.,12.0,0.,12.0,0.,12.0,0.,12.0
1979-07-26 10:05:26.440 ,0,1,0.,12.0,0.,12.0,0.,12.0,0.,12.0
1979-07-26 10:05:38.440 ,0,0,0.,12.0,0.,12.0,0.,12.0,0.,12.0
1979-07-26 10:05:50.440 ,0,0,0.,12.0,0.,12.0,0.,12.0,0.,12.0
1979-07-26 10:06:02.440 ,0,0,0.,12.0,0.,12.0,0.,12.0,0.,12.0
1979-07-26 10:06:14.440 ,0,0,0.,12.0,0.,12.0,0.,12.0,0.,12.0
1979-07-26 10:06:26.440 ,5,1,0.,12.0,0.,12.0,0.,12.0,0.,12.0
1979-07-26 10:06:38.440 ,5,1,0.,12.0,0.,12.0,0.,12.0,0.,12.0
1979-07-26 10:06:50.440 ,5,0,0.,12.0,0.,12.0,0.,12.0,0.,12.0
1979-07-26 10:07:02.440 ,5,0,0.,12.0,0.,12.0,0.,12.0,0.,12.0
1979-07-26 10:07:14.440 ,4,1,0.,12.0,0.,12.0,0.,12.0,0.,12.0
1979-07-26 10:07:26.440 ,4,1,0.,12.0,0.,12.0,0.,12.0,0.,12.0
1979-07-26 10:07:38.440 ,4,0,0.,12.0,0.,12.0,0.,12.0,0.,12.0
1979-07-26 10:07:50.440 ,4,0,0.,12.0,0.,12.0,0.,12.0,0.,12.0
1979-07-26 10:08:02.440 ,3,1,0.,12.0,0.,12.0,0.,12.0,0.,12.0
1979-07-26 10:08:14.440 ,3,1,0.,12.0,0.,12.0,0.,12.0,0.,12.0
1979-07-26 10:08:26.440 ,3,0,0.,12.0,0.,12.0,0.,12.0,0.,12.0
1979-07-26 10:08:38.440 ,3,0,0.,12.0,0.,12.0,0.,12.0,0.,12.0
1979-07-26 10:08:50.440 ,2,1,0.,12.0,0.,12.0,0.,12.0,0.,12.0
1979-07-26 10:09:02.440 ,2,1,0.,12.0,0.,12.0,0.,12.0,0.,12.0
1979-07-26 10:09:14.440 ,2,0,0.,12.0,0.,12.0,0.,12.0,0.,12.0
1979-07-26 10:09:26.440 ,2,0,0.,12.0,0.,12.0,0.,12.0,0.,12.0
1979-07-26 10:09:38.440 ,1,1,0.,12.0,0.,12.0,0.,12.0,0.,12.0
1979-07-26 10:09:50.440 ,1,1,0.,12.0,0.,12.0,0.,12.0,0.,12.0
1979-07-26 10:10:02.440 ,1,0,0.,12.0,0.,12.0,0.,12.0,0.,12.0
1979-07-26 10:10:14.440 ,1,0,0.,12.0,0.,12.0,0.,12.0,0.,12.0
1979-07-26 10:10:26.440 ,0,1,0.,12.0,0.,12.0,0.,12.0,0.,12.0
1979-07-26 10:10:38.440 ,0,1,0.,12.0,0.,12.0,0.,12.0,0.,12.0
1979-07-26 10:10:50.440 ,0,0,0.,12.0,0.,12.0,0.,12.0,0.,12.0
1979-07-26 10:11:02.440 ,0,0,0.,12.0,0.,12.0,0.,12.0,0.,12.0
1979-07-26 10:11:14.440 ,0,1,0.,12.0,0.,12.0,0.,12.0,0.,12.0
1979-07-26 10:11:26.440 ,0,1,0.,12.0,0.,12.0,0.,12.0,0.,12.0
1979-07-26 10:11:38.440 ,0,0,0.,12.0,0.,12.0,0.,12.0,0.,12.0
1979-07-26 10:11:50.440 ,0,0,0.,12.0,0.,12.0,0.,12.0,0.,12.0
1979-07-26 10:12:02.440 ,1,1,0.,12.0,0.,12.0,0.,12.0,0.,12.0
1979-07-26 10:12:14.440 ,1,1,0.,12.0,0.,12.0,0.,12.0,0.,12.0
1979-07-26 10:12:26.440 ,1,0,0.,12.0,0.,12.0,0.,12.0,0.,12.0
1979-07-26 10:12:38.440 ,1,0,0.,12.0,0.,12.0,0.,12.0,0.,12.0
1979-07-26 10:12:50.440 ,2,1,0.,12.0,0.,12.0,0.,12.0,0.,12.0
1979-07-26 10:13:02.440 ,2,1,0.,12.0,0.,12.0,0.,12.0,0.,12.0
1979-07-26 10:13:14.440 ,2,0,0.,12.0,0.,12.0,0.,12.0,0.,12.0
1979-07-26 10:13:26.440 ,2,0,0.,12.0,0.,12.0,0.,12.0,0.,12.0
1979-07-26 10:13:38.440 ,3,1,0.,12.0,0.,12.0,0.,12.0,0.,12.0
1979-07-26 10:13:50.440 ,3,1,0.,12.0,0.,12.0,0.,12.0,0.,12.0
1979-07-26 10:14:02.440 ,3,0,0.,12.0,0.,12.0,0.,12.0,0.,12.0
1979-07-26 10:14:14.440 ,3,0,0.,12.0,0.,12.0,0.,12.0,0.,12.0
1979-07-26 10:14:26.440 ,4,1,0.,12.0,0.,12.0,0.,12.0,0.,12.0
1979-07-26 10:14:38.440 ,4,1,0.,12.0,0.,12.0,0.,12.0,0.,12.0
1979-07-26 10:14:50.440 ,4,0,0.,12.0,0.,12.0,0.,12.0,0.,12.0
1979-07-26 10:15:02.440 ,4,0,0.,12.0,0.,12.0,0.,12.0,0.,12.0
1979-07-26 10:15:14.440 ,5,1,0.,12.0,0.,12.0,0.,12.0,0.,12.0
1979-07-26 10:15:26.440 ,5,1,0.,12.0,0.,12.0,0.,12.0,0.,12.0
1979-07-26 10:15:38.440 ,5,0,0.,12.0,0.,12.0,0.,12.0,0.,12.0
1979-07-26 10:15:50.440 ,5,0,0.,12.0,0.,12.0,0.,12.0,0.,12.0
1979-07-26 10:16:02.440 ,6,1,0.,12.0,0.,12.0,0.,12.0,0.,12.0
1979-07-26 10:16:14.440 ,6,1,0.,12.0,0.,12.0,0.,12.0,0.,12.0
1979-07-26 10:16:26.440 ,6,0,0.,12.0,0.,12.0,0.,12.0,0.,12.0
1979-07-26 10:16:38.440 ,6,0,0.,12.0,0.,12.0,0.,12.0,0.,12.0
1979-07-26 10:16:50.440 ,7,1,0.,12.0,0.,12.0,0.,12.0,0.,12.0
1979-07-26 10:17:02.440 ,7,1,0.,12.0,0.,12.0,0.,12.0,0.,12.0
1979-07-26 10:17:14.440 ,7,0,0.,12.0,0.,12.0,0.,12.0,0.,12.0
1979-07-26 10:17:26.440 ,7,0,0.,12.0,0.,12.0,0.,12.0,0.,12.0
1979-07-26 10:17:38.440 ,7,1,0.,12.0,0.,12.0,0.,12.0,0.,12.0
1979-07-26 10:17:50.440 ,7,1,0.,12.0,0.,12.0,0.,12.0,0.,12.0
1979-07-26 10:18:02.440 ,7,0,0.,12.0,0.,12.0,0.,12.0,0.,12.0
1979-07-26 10:18:14.440 ,7,0,0.,12.0,0.,12.0,0.,12.0,0.,12.0
1979-07-26 10:18:26.440 ,6,1,0.,12.0,0.,12.0,0.,12.0,0.,12.0